This demonstration page uses our WeatherBlox Daily Observations layout. Learn more.

Left ArrowRight Arrow

40.92945, -100.16068

Hourly Observations for April 9, 2016

Temp ( °F °C ) Dew Point ( °F °C ) Humidity (%) Winds ( mph kmh ) Pressure ( in mb ) Visibility ( mi km ) Precip ( " mm )
12:15 am 00:15 Clear 38 3.2 25 -4 60 60 E 9 15 30.21 1023 10 16 N/A
12:35 am 00:35 Clear 39 3.7 24 -4.5 55 55 E 10 17 30.21 1023 10 16 N/A
12:55 am 00:55 Clear 38 3.3 24 -4.7 56 56 ESE 9 15 30.21 1023 10 16 N/A
1:15 am 01:15 Clear 37 2.6 24 -4.6 59 59 ESE 9 15 30.21 1023 10 16 N/A
1:35 am 01:35 Clear 37 2.5 24 -4.6 60 60 E 9 15 30.21 1023 10 16 N/A
1:55 am 01:55 Clear 35 1.6 24 -4.6 64 64 E 7 11 30.24 1024 10 16 N/A
2:15 am 02:15 Clear 34 1.1 24 -4.7 66 66 ESE 9 15 30.21 1023 10 16 N/A
2:35 am 02:35 Clear 34 1 23 -5 65 65 ESE 9 15 30.21 1023 10 16 N/A
2:55 am 02:55 Clear 34 1.1 23 -5.2 63 63 ESE 9 15 30.21 1023 10 16 N/A
3:15 am 03:15 Clear 34 1.1 22 -5.6 61 61 ESE 12 19 30.21 1023 10 16 N/A
3:35 am 03:35 Clear 34 1 21 -6.2 59 59 ESE 14 22 30.18 1022 10 16 N/A
3:55 am 03:55 Clear 33 0.8 20 -6.6 58 58 ESE 12 19 30.18 1022 10 16 N/A
4:15 am 04:15 Clear 33 0.5 19 -7 58 58 SE 13 20 30.18 1022 10 16 N/A
4:35 am 04:35 Clear 32 0.1 20 -6.8 60 60 SE 10 17 30.18 1022 10 16 N/A
4:55 am 04:55 Clear 32 undefined 19 -7.1 59 59 SE 12 19 30.18 1022 10 16 N/A
5:15 am 05:15 Clear 31 -0.3 19 -7.2 60 60 SE 10 17 30.18 1022 10 16 N/A
5:35 am 05:35 Clear 31 -0.5 19 -7.4 60 60 SE 10 17 30.15 1021 10 16 N/A
5:55 am 05:55 Clear 31 -0.7 19 -7.4 61 61 SE 9 15 30.15 1021 10 16 N/A
6:15 am 06:15 Clear 30 -1.1 19 -7.5 62 62 SE 8 13 30.15 1021 10 16 N/A
6:35 am 06:35 Clear 29 -1.5 19 -7.5 64 64 SE 8 13 30.15 1021 10 16 N/A
6:55 am 06:55 Clear 30 -1.3 18 -7.8 62 62 SE 8 13 30.15 1021 10 16 N/A
7:15 am 07:15 Sunny 30 -1.3 17 -8.1 60 60 SE 9 15 30.15 1021 10 16 N/A
7:35 am 07:35 Sunny 30 -1 17 -8.4 58 58 SE 9 15 30.15 1021 10 16 N/A
7:55 am 07:55 Sunny 31 -0.8 17 -8.4 57 57 SE 9 15 30.15 1021 10 16 N/A
8:15 am 08:15 Sunny 32 undefined 18 -8 55 55 SE 10 17 30.15 1021 10 16 N/A
8:35 am 08:35 Sunny 33 0.5 17 -8.2 53 53 SE 15 24 30.15 1021 10 16 N/A
8:55 am 08:55 Sunny 35 1.5 17 -8.6 47 47 SE 18 30 30.12 1020 10 16 N/A
9:15 am 09:15 Sunny 37 2.5 16 -8.7 44 44 SSE 22 35 30.12 1020 10 16 N/A
9:35 am 09:35 Sunny 38 3.1 16 -8.8 42 42 SE 18 30 30.12 1020 10 16 N/A
9:55 am 09:55 Sunny 39 4.1 16 -8.7 39 39 SSE 18 30 30.06 1018 10 16 N/A
10:15 am 10:15 Sunny 41 4.9 17 -8.5 38 38 SSE 22 35 30.06 1018 10 16 N/A
10:35 am 10:35 Sunny 42 5.5 18 -7.9 38 38 SSE 20 31 30.06 1018 10 16 N/A
10:55 am 10:55 Sunny 44 6.4 18 -7.7 36 36 SSE 16 26 30.03 1017 10 16 N/A
11:15 am 11:15 Sunny 46 8 19 -7.1 34 34 SSE 23 37 30.00 1016 10 16 N/A
11:35 am 11:35 Sunny 48 8.9 20 -6.6 33 33 SSE 26 43 30.00 1016 10 16 N/A
11:55 am 11:55 Sunny 50 10 22 -5.7 33 33 SSE 23 37 29.94 1014 10 16 N/A
12:15 pm 12:15 Sunny 50 10.2 23 -5.1 34 34 SSE 20 31 29.91 1013 10 16 N/A
12:35 pm 12:35 Sunny 51 10.8 24 -4.2 35 35 S 23 37 29.91 1013 10 16 N/A
12:55 pm 12:55 Sunny 53 11.5 25 -3.9 34 34 SSE 21 33 29.88 1012 10 16 N/A
1:15 pm 13:15 Sunny 54 12 26 -3.4 34 34 SSE 18 30 29.85 1011 10 16 N/A
1:35 pm 13:35 Sunny 55 12.9 27 -2.6 34 34 S 17 28 29.83 1010 10 16 N/A
1:55 pm 13:55 Sunny 56 13.6 28 -2.4 33 33 S 21 33 29.80 1009 10 16 N/A
2:15 pm 14:15 Sunny 58 14.2 28 -2 33 33 SSE 20 31 29.80 1009 10 16 N/A
2:35 pm 14:35 Sunny 59 15 30 -1.2 33 33 S 17 28 29.77 1008 10 16 N/A
2:55 pm 14:55 Sunny 60 15.8 31 -0.8 32 32 S 21 33 29.74 1007 10 16 N/A
3:15 pm 15:15 Sunny 62 16.6 32 undefined 33 33 S 18 30 29.71 1006 10 16 N/A
3:35 pm 15:35 Sunny 64 17.6 32 0.2 31 31 SSE 20 31 29.68 1005 10 16 N/A
3:55 pm 15:55 Sunny 65 18.2 34 1.3 32 32 S 16 26 29.65 1004 10 16 N/A
4:15 pm 16:15 Sunny 68 19.8 37 2.5 32 32 S 18 30 29.65 1004 10 16 N/A
4:35 pm 16:35 Sunny 68 20.1 37 2.9 32 32 S 16 26 29.62 1003 10 16 N/A
4:55 pm 16:55 Sunny 69 20.6 38 3.3 32 32 S 18 30 29.59 1002 10 16 N/A
5:15 pm 17:15 Sunny 70 21.1 39 3.8 32 32 S 22 35 29.59 1002 10 16 N/A
5:35 pm 17:35 Sunny 70 21 39 3.8 32 32 SSE 20 31 29.59 1002 10 16 N/A
5:55 pm 17:55 Sunny 70 21.2 39 4 32 32 SSE 18 30 29.56 1001 10 16 N/A
6:15 pm 18:15 Sunny 71 21.7 40 4.5 33 33 SSE 17 28 29.56 1001 10 16 N/A
6:35 pm 18:35 Sunny 71 21.8 40 4.7 33 33 SSE 18 30 29.53 1000 10 16 N/A
6:55 pm 18:55 Sunny 71 21.5 40 4.7 33 33 SSE 17 28 29.53 1000 10 16 N/A
7:15 pm 19:15 Sunny 70 21.1 40 4.6 34 34 SE 13 20 29.53 1000 10 16 N/A
7:35 pm 19:35 Sunny 70 20.9 42 5.6 37 37 SSE 15 24 29.53 1000 10 16 N/A
7:55 pm 19:55 Sunny 68 20.1 42 5.7 39 39 SSE 13 20 29.50 999 10 16 N/A
8:15 pm 20:15 Clear 66 19.1 42 5.6 41 41 SE 8 13 29.53 1000 10 16 N/A
8:35 pm 20:35 Clear 64 17.7 42 5.7 45 45 SSE 10 17 29.53 1000 10 16 N/A
8:55 pm 20:55 Clear 62 16.5 42 5.7 49 49 S 9 15 29.50 999 10 16 N/A
9:15 pm 21:15 Clear 63 17 42 5.5 47 47 S 13 20 29.50 999 10 16 N/A
9:35 pm 21:35 Clear 63 17.1 42 5.6 47 47 S 12 19 29.50 999 10 16 N/A
9:55 pm 21:55 Clear 63 17.1 42 5.6 47 47 S 12 19 29.53 1000 10 16 N/A
10:15 pm 22:15 Clear 63 17.2 42 5.7 47 47 S 12 19 29.53 1000 10 16 N/A
10:35 pm 22:35 Clear 63 17.4 43 6 47 47 S 12 19 29.53 1000 10 16 N/A
10:55 pm 22:55 Clear 62 16.7 43 6.1 50 50 S 12 19 29.53 1000 10 16 N/A
11:15 pm 23:15 Clear 62 16.5 44 6.4 51 51 S 14 22 29.53 1000 10 16 N/A
11:35 pm 23:35 Clear 61 16.3 44 6.6 53 53 SSW 14 22 29.53 1000 10 16 N/A
11:55 pm 23:55 Clear 61 16.2 44 6.7 54 54 SSW 17 28 29.50 999 10 16 N/A

Powered by AerisWeather